Overview Statistics Trail Chart Weather Telemetry Raw packets
 

This is the latest recevied weather packets stored in our database for station/object W5MAI. If no packets are shown the sender has not sent any weather packets the latest 10 day(s).

<< 13 14 15 16 17 18 19 >>
Time Temp. Humidity Pressure Rain* Wind** Luminosity Snow
1788415420 27.78° C 77% 1015.5 hPa 0 mm - 0 W/m² -
1788414804 28.33° C 76% 1015.6 hPa 0 mm - 0 W/m² -
1788414210 28.33° C 75% 1015.8 hPa 0 mm - 0 W/m² -
1788413625 28.89° C 73% 1015.7 hPa 0 mm - 0 W/m² -
1788413010 28.89° C 72% 1015.5 hPa 0 mm - 0 W/m² -
1788412411 28.89° C 71% 1015.4 hPa 0 mm - 0 W/m² -
1788411824 29.44° C 70% 1015.3 hPa 0 mm - 0 W/m² -
1788411250 29.44° C 69% 1015.1 hPa 0 mm - 0 W/m² -
1788410606 30° C 68% 1015 hPa 0 mm - 0 W/m² -
1788410037 30° C 67% 1015 hPa 0 mm - 0 W/m² -
1788409459 30° C 67% 1014.9 hPa 0 mm - 0 W/m² -
1788408810 30.56° C 66% 1014.9 hPa 0 mm - 0 W/m² -
1788408228 30.56° C 64% 1014.9 hPa 0 mm - 0 W/m² -
1788407643 30.56° C 61% 1014.9 hPa 0 mm - 0 W/m² -
1788407003 31.11° C 60% 1014.9 hPa 0 mm - 0 W/m² -
1788406432 31.11° C 59% 1014.8 hPa 0 mm - 0 W/m² -
1788405841 30° C 58% 1014.7 hPa 0 mm - 0 W/m² -
1788405245 28.33° C 64% 1014.2 hPa 0 mm - 0 W/m² -
1788404613 28.33° C 64% 1014.1 hPa 0 mm - 0 W/m² -
1788404020 28.33° C 64% 1014 hPa 0 mm - 0 W/m² -
1788403440 28.89° C 64% 1013.8 hPa 0 mm - 0 W/m² -
1788402857 28.89° C 62% 1013.7 hPa 0 mm - 0 W/m² -
1788402223 29.44° C 62% 1013.6 hPa 0 mm - 0 W/m² -
1788401644 29.44° C 63% 1013.4 hPa 0 mm - 0 W/m² -
1788401006 30° C 61% 1013.3 hPa 0 mm - 0 W/m² -

* Rain latest hour (hover to see other rain measurements)
** Current wind speed in m/s (hover to see current wind gust speed)